Time,TemperatureF,DewpointF,PressureIn,WindDirection,WindDirectionDegrees,WindSpeedMPH,WindSpeedGustMPH,Humidity,HourlyPrecipIn,Conditions,Clouds,dailyrainin,SoftwareType,DateUTC
2013-03-18 00:00:00,47.3,41.5,24.80,WSW,241,0.0,0.0,80,0.00,,---,0.00,VWS V13.01,2013-03-18 07:00:00,
2013-03-18 00:05:00,47.2,41.4,24.80,WSW,241,0.0,0.0,80,0.00,,---,0.00,VWS V13.01,2013-03-18 07:05:00,
2013-03-18 00:10:00,47.0,41.2,24.80,WSW,241,0.0,0.0,80,0.00,,---,0.00,VWS V13.01,2013-03-18 07:10:00,
2013-03-18 00:15:00,46.9,41.1,24.80,WSW,241,0.0,0.0,80,0.00,,---,0.00,VWS V13.01,2013-03-18 07:15:00,
2013-03-18 00:20:00,46.8,41.3,24.80,WSW,241,0.0,0.0,81,0.00,,---,0.00,VWS V13.01,2013-03-18 07:20:00,
2013-03-18 00:25:00,46.8,41.3,24.80,WSW,241,0.0,0.0,81,0.00,,---,0.00,VWS V13.01,2013-03-18 07:25:00,
2013-03-18 00:30:00,46.8,41.3,24.80,WSW,241,0.0,0.0,81,0.00,,---,0.00,VWS V13.01,2013-03-18 07:30:00,
2013-03-18 00:35:00,46.7,41.2,24.80,WSW,241,0.0,0.0,81,0.00,,---,0.00,VWS V13.01,2013-03-18 07:35:00,
2013-03-18 00:40:00,46.5,41.0,24.80,WSW,241,0.0,0.0,81,0.00,,---,0.00,VWS V13.01,2013-03-18 07:40:00,
2013-03-18 00:45:00,46.5,41.3,24.80,WSW,241,0.0,0.0,82,0.00,,---,0.00,VWS V13.01,2013-03-18 07:45:00,
2013-03-18 00:50:00,46.5,41.3,24.80,WSW,241,0.0,0.0,82,0.00,,---,0.00,VWS V13.01,2013-03-18 07:50:00,
2013-03-18 00:55:00,46.5,41.3,24.80,WSW,241,0.0,0.0,82,0.00,,---,0.00,VWS V13.01,2013-03-18 07:55:00,
2013-03-18 01:00:00,46.5,41.6,24.80,WSW,241,0.0,0.0,83,0.00,,---,0.00,VWS V13.01,2013-03-18 08:00:00,
2013-03-18 01:06:00,46.5,41.6,24.80,WSW,241,0.0,0.0,83,0.00,,---,0.00,VWS V13.01,2013-03-18 08:06:00,
2013-03-18 01:11:00,46.5,41.6,24.80,WSW,241,0.0,0.0,83,0.00,,---,0.00,VWS V13.01,2013-03-18 08:11:00,
2013-03-18 01:16:00,46.3,41.4,24.80,WSW,241,0.0,0.0,83,0.00,,---,0.00,VWS V13.01,2013-03-18 08:16:00,
2013-03-18 01:21:00,46.2,41.3,24.80,WSW,241,0.0,0.0,83,0.00,,---,0.00,VWS V13.01,2013-03-18 08:21:00,
2013-03-18 01:26:00,46.1,41.2,24.80,WSW,241,0.0,0.0,83,0.00,,---,0.00,VWS V13.01,2013-03-18 08:26:00,
2013-03-18 01:32:00,46.0,41.1,24.80,WSW,241,0.0,0.0,83,0.00,,---,0.00,VWS V13.01,2013-03-18 08:32:00,
2013-03-18 01:37:00,46.0,41.4,24.80,WSW,241,0.0,0.0,84,0.00,,---,0.00,VWS V13.01,2013-03-18 08:37:00,
2013-03-18 01:42:00,45.8,41.2,24.80,WSW,241,0.0,0.0,84,0.00,,---,0.00,VWS V13.01,2013-03-18 08:42:00,
2013-03-18 01:47:00,45.8,41.2,24.80,WSW,241,0.0,0.0,84,0.00,,---,0.00,VWS V13.01,2013-03-18 08:47:00,
2013-03-18 01:52:00,45.8,41.2,24.80,WSW,241,0.0,0.0,84,0.00,,---,0.00,VWS V13.01,2013-03-18 08:52:00,
2013-03-18 01:57:00,45.8,41.2,24.80,WSW,241,0.0,0.0,84,0.00,,---,0.00,VWS V13.01,2013-03-18 08:57:00,
2013-03-18 02:02:00,45.9,41.3,24.80,WSW,241,0.0,0.0,84,0.00,,---,0.00,VWS V13.01,2013-03-18 09:02:00,
2013-03-18 02:07:00,46.0,41.4,24.80,WSW,241,0.0,0.0,84,0.00,,---,0.00,VWS V13.01,2013-03-18 09:07:00,
2013-03-18 02:12:00,46.0,41.4,24.80,WSW,241,0.0,0.0,84,0.00,,---,0.00,VWS V13.01,2013-03-18 09:12:00,
2013-03-18 02:17:00,45.9,41.3,24.80,WSW,241,0.0,0.0,84,0.00,,---,0.00,VWS V13.01,2013-03-18 09:17:00,
2013-03-18 02:22:00,45.8,41.2,24.80,WSW,241,0.0,0.0,84,0.00,,---,0.00,VWS V13.01,2013-03-18 09:22:00,
2013-03-18 02:27:00,45.6,41.0,24.80,WSW,241,0.0,0.0,84,0.00,,---,0.00,VWS V13.01,2013-03-18 09:27:00,
2013-03-18 02:33:00,45.4,40.9,24.80,WSW,241,0.0,0.0,84,0.00,,---,0.00,VWS V13.01,2013-03-18 09:33:00,
2013-03-18 02:38:00,45.3,40.8,24.80,WSW,241,0.0,0.0,84,0.00,,---,0.00,VWS V13.01,2013-03-18 09:38:00,
2013-03-18 02:42:00,45.1,40.6,24.80,WSW,241,0.0,0.0,84,0.00,,---,0.00,VWS V13.01,2013-03-18 09:42:00,
2013-03-18 02:48:00,44.9,40.4,24.80,WSW,241,0.0,0.0,84,0.00,,---,0.00,VWS V13.01,2013-03-18 09:48:00,
2013-03-18 02:53:00,44.7,40.2,24.80,WSW,241,0.0,0.0,84,0.00,,---,0.00,VWS V13.01,2013-03-18 09:53:00,
2013-03-18 02:58:00,44.5,40.3,24.80,WSW,241,0.0,0.0,85,0.00,,---,0.00,VWS V13.01,2013-03-18 09:58:00,
2013-03-18 03:03:00,44.4,40.2,24.80,WSW,241,0.0,0.0,85,0.00,,---,0.00,VWS V13.01,2013-03-18 10:03:00,
2013-03-18 03:07:00,44.2,40.0,24.80,WSW,241,0.0,0.0,85,0.00,,---,0.00,VWS V13.01,2013-03-18 10:07:00,
2013-03-18 03:12:00,44.1,39.9,24.80,WSW,241,0.0,0.0,85,0.00,,---,0.00,VWS V13.01,2013-03-18 10:12:00,
2013-03-18 03:17:00,44.1,39.9,24.80,WSW,241,0.0,0.0,85,0.00,,---,0.00,VWS V13.01,2013-03-18 10:17:00,
2013-03-18 03:22:00,44.0,39.8,24.80,WSW,241,0.0,0.0,85,0.00,,---,0.00,VWS V13.01,2013-03-18 10:22:00,
2013-03-18 03:27:00,43.9,39.7,24.80,WSW,241,0.0,0.0,85,0.00,,---,0.00,VWS V13.01,2013-03-18 10:27:00,
2013-03-18 03:32:00,43.8,39.6,24.80,WSW,241,0.0,0.0,85,0.00,,---,0.00,VWS V13.01,2013-03-18 10:32:00,
2013-03-18 03:37:00,43.8,39.6,24.80,WSW,241,0.0,0.0,85,0.00,,---,0.00,VWS V13.01,2013-03-18 10:37:00,
2013-03-18 03:42:00,43.8,39.9,24.80,WSW,241,0.0,0.0,86,0.00,,---,0.00,VWS V13.01,2013-03-18 10:42:00,
2013-03-18 03:47:00,43.8,39.6,24.80,WSW,241,0.0,0.0,85,0.00,,---,0.00,VWS V13.01,2013-03-18 10:47:00,
2013-03-18 03:52:00,43.8,39.6,24.80,WSW,241,0.0,0.0,85,0.00,,---,0.00,VWS V13.01,2013-03-18 10:52:00,
2013-03-18 03:57:00,43.7,39.5,24.80,WSW,241,0.0,0.0,85,0.00,,---,0.00,VWS V13.01,2013-03-18 10:57:00,
2013-03-18 04:02:00,43.6,39.4,24.80,WSW,241,0.0,0.0,85,0.00,,---,0.00,VWS V13.01,2013-03-18 11:02:00,
2013-03-18 04:07:00,43.5,39.3,24.80,WSW,241,0.0,0.0,85,0.00,,---,0.00,VWS V13.01,2013-03-18 11:07:00,
2013-03-18 04:12:00,43.4,39.2,24.80,WSW,241,0.0,0.0,85,0.00,,---,0.00,VWS V13.01,2013-03-18 11:12:00,
2013-03-18 04:17:00,43.3,39.1,24.80,WSW,241,0.0,0.0,85,0.00,,---,0.00,VWS V13.01,2013-03-18 11:17:00,
2013-03-18 04:22:00,43.2,39.0,24.80,WSW,241,0.0,0.0,85,0.00,,---,0.00,VWS V13.01,2013-03-18 11:22:00,
2013-03-18 04:27:00,43.1,38.9,24.80,WSW,241,0.0,0.0,85,0.00,,---,0.00,VWS V13.01,2013-03-18 11:27:00,
2013-03-18 04:32:00,42.9,38.7,24.80,WSW,241,0.0,0.0,85,0.00,,---,0.00,VWS V13.01,2013-03-18 11:32:00,
2013-03-18 04:37:00,42.8,38.6,24.80,WSW,241,0.0,0.0,85,0.00,,---,0.00,VWS V13.01,2013-03-18 11:37:00,
2013-03-18 04:42:00,42.7,38.5,24.80,WSW,241,0.0,0.0,85,0.00,,---,0.00,VWS V13.01,2013-03-18 11:42:00,
2013-03-18 04:47:00,42.6,38.7,24.80,WSW,241,0.0,0.0,86,0.00,,---,0.00,VWS V13.01,2013-03-18 11:47:00,
2013-03-18 04:52:00,42.5,38.6,24.80,WSW,241,0.0,0.0,86,0.00,,---,0.00,VWS V13.01,2013-03-18 11:52:00,
2013-03-18 04:57:00,42.4,38.5,24.80,WSW,241,0.0,0.0,86,0.00,,---,0.00,VWS V13.01,2013-03-18 11:57:00,
2013-03-18 05:03:00,42.3,38.4,24.80,WSW,241,0.0,0.0,86,0.00,,---,0.00,VWS V13.01,2013-03-18 12:03:00,
2013-03-18 05:08:00,42.2,38.3,24.80,WSW,241,0.0,0.0,86,0.00,,---,0.00,VWS V13.01,2013-03-18 12:08:00,
2013-03-18 05:13:00,42.2,38.3,24.80,WSW,241,0.0,0.0,86,0.00,,---,0.00,VWS V13.01,2013-03-18 12:13:00,
2013-03-18 05:18:00,42.1,38.2,24.80,WSW,241,0.0,0.0,86,0.00,,---,0.00,VWS V13.01,2013-03-18 12:18:00,
2013-03-18 05:23:00,42.0,38.1,24.80,WSW,241,0.0,0.0,86,0.00,,---,0.00,VWS V13.01,2013-03-18 12:23:00,
2013-03-18 05:28:00,42.0,38.1,24.80,WSW,241,0.0,0.0,86,0.00,,---,0.00,VWS V13.01,2013-03-18 12:28:00,
2013-03-18 05:32:00,41.9,38.0,24.80,WSW,241,0.0,0.0,86,0.00,,---,0.00,VWS V13.01,2013-03-18 12:32:00,
2013-03-18 05:37:00,41.8,37.9,24.80,WSW,241,0.0,0.0,86,0.00,,---,0.00,VWS V13.01,2013-03-18 12:37:00,
2013-03-18 05:42:00,41.7,37.8,24.80,WSW,241,0.0,0.0,86,0.00,,---,0.00,VWS V13.01,2013-03-18 12:42:00,
2013-03-18 05:47:00,41.6,37.7,24.80,WSW,241,0.0,0.0,86,0.00,,---,0.00,VWS V13.01,2013-03-18 12:47:00,
2013-03-18 05:52:00,41.6,38.0,24.80,WSW,241,0.0,0.0,87,0.00,,---,0.00,VWS V13.01,2013-03-18 12:52:00,
2013-03-18 05:57:00,41.5,37.9,24.80,WSW,241,0.0,0.0,87,0.00,,---,0.00,VWS V13.01,2013-03-18 12:57:00,
2013-03-18 06:03:00,41.4,37.8,24.80,WSW,241,0.0,0.0,87,0.00,,---,0.00,VWS V13.01,2013-03-18 13:03:00,
2013-03-18 06:08:00,41.4,37.8,24.80,WSW,241,0.0,0.0,87,0.00,,---,0.00,VWS V13.01,2013-03-18 13:08:00,
2013-03-18 06:12:00,41.4,37.8,24.80,WSW,241,0.0,0.0,87,0.00,,---,0.00,VWS V13.01,2013-03-18 13:12:00,
2013-03-18 06:17:00,41.4,37.8,24.80,WSW,241,0.0,0.0,87,0.00,,---,0.00,VWS V13.01,2013-03-18 13:17:00,
2013-03-18 06:22:00,41.4,37.8,24.80,WSW,241,0.0,0.0,87,0.00,,---,0.00,VWS V13.01,2013-03-18 13:22:00,
2013-03-18 06:27:00,41.5,37.9,24.80,WSW,241,0.0,0.0,87,0.00,,---,0.00,VWS V13.01,2013-03-18 13:27:00,
2013-03-18 06:33:00,41.4,37.8,24.80,WSW,241,0.0,0.0,87,0.00,,---,0.00,VWS V13.01,2013-03-18 13:33:00,
2013-03-18 06:38:00,41.4,37.8,24.77,WSW,241,0.0,0.0,87,0.00,,---,0.00,VWS V13.01,2013-03-18 13:38:00,
2013-03-18 06:42:00,41.4,37.8,24.74,WSW,241,0.0,0.0,87,0.00,,---,0.00,VWS V13.01,2013-03-18 13:42:00,
2013-03-18 06:47:00,41.3,37.7,24.72,WSW,241,0.0,0.0,87,0.00,,---,0.00,VWS V13.01,2013-03-18 13:47:00,
2013-03-18 06:52:00,41.2,37.6,24.73,WSW,241,0.0,0.0,87,0.00,,---,0.00,VWS V13.01,2013-03-18 13:52:00,
2013-03-18 06:57:00,41.2,37.6,24.71,WSW,241,0.0,0.0,87,0.00,,---,0.00,VWS V13.01,2013-03-18 13:57:00,
2013-03-18 07:02:00,41.1,37.5,24.71,WSW,241,0.0,0.0,87,0.00,,---,0.00,VWS V13.01,2013-03-18 14:02:00,
2013-03-18 07:07:00,41.0,38.9,24.71,WSW,241,0.0,0.0,92,0.00,,---,0.00,VWS V13.01,2013-03-18 14:07:00,
2013-03-18 07:12:00,41.0,37.4,24.71,WSW,241,0.0,0.0,87,0.00,,---,0.00,VWS V13.01,2013-03-18 14:12:00,
2013-03-18 07:17:00,41.1,37.8,24.71,WSW,241,0.0,0.0,88,0.00,,---,0.00,VWS V13.01,2013-03-18 14:17:00,
2013-03-18 07:22:00,41.1,37.8,24.71,WSW,241,0.0,0.0,88,0.00,,---,0.00,VWS V13.01,2013-03-18 14:22:00,
2013-03-18 07:27:00,41.1,37.8,24.71,WSW,241,0.0,0.0,88,0.00,,---,0.00,VWS V13.01,2013-03-18 14:27:00,
2013-03-18 07:32:00,41.1,37.8,24.71,WSW,241,0.0,0.0,88,0.00,,---,0.00,VWS V13.01,2013-03-18 14:32:00,
2013-03-18 07:37:00,41.1,37.8,18.05,WSW,241,0.0,0.0,88,0.00,,---,0.00,VWS V13.01,2013-03-18 14:37:00,
2013-03-18 07:42:00,41.3,38.0,18.05,WSW,241,0.0,0.0,88,0.00,,---,0.00,VWS V13.01,2013-03-18 14:42:00,
2013-03-18 07:47:00,41.4,38.1,24.74,WSW,241,0.0,0.0,88,0.00,,---,0.00,VWS V13.01,2013-03-18 14:47:00,
2013-03-18 07:52:00,41.6,38.6,24.71,WSW,241,0.0,0.0,89,0.00,,---,0.00,VWS V13.01,2013-03-18 14:52:00,
2013-03-18 07:57:00,41.8,38.8,24.71,WSW,241,0.0,0.0,89,0.00,,---,0.00,VWS V13.01,2013-03-18 14:57:00,
2013-03-18 08:02:00,41.9,38.6,24.71,WSW,241,0.0,0.0,88,0.00,,---,0.00,VWS V13.01,2013-03-18 15:02:00,
2013-03-18 08:07:00,42.2,38.9,24.74,WSW,241,0.0,0.0,88,0.00,,---,0.00,VWS V13.01,2013-03-18 15:07:00,
2013-03-18 08:12:00,42.5,39.5,24.80,WSW,241,0.0,0.0,89,0.00,,---,0.00,VWS V13.01,2013-03-18 15:12:00,
2013-03-18 08:17:00,42.8,39.8,24.80,WSW,241,0.0,0.0,89,0.00,,---,0.00,VWS V13.01,2013-03-18 15:17:00,
2013-03-18 08:22:00,43.1,40.1,24.80,WSW,241,0.0,0.0,89,0.00,,---,0.00,VWS V13.01,2013-03-18 15:22:00,
2013-03-18 08:27:00,43.4,40.1,24.80,WSW,241,0.0,0.0,88,0.00,,---,0.00,VWS V13.01,2013-03-18 15:27:00,
2013-03-18 08:32:00,43.8,40.8,24.80,WSW,241,0.0,0.0,89,0.00,,---,0.00,VWS V13.01,2013-03-18 15:32:00,
2013-03-18 08:37:00,44.2,40.9,24.80,WSW,241,0.0,0.0,88,0.00,,---,0.00,VWS V13.01,2013-03-18 15:37:00,
2013-03-18 08:42:00,44.5,41.2,24.80,WSW,241,0.0,0.0,88,0.00,,---,0.00,VWS V13.01,2013-03-18 15:42:00,
2013-03-18 08:47:00,44.8,41.5,24.80,WSW,241,0.0,0.0,88,0.00,,---,0.00,VWS V13.01,2013-03-18 15:47:00,
2013-03-18 08:52:00,45.2,41.9,24.80,WSW,241,0.0,0.0,88,0.00,,---,0.00,VWS V13.01,2013-03-18 15:52:00,
2013-03-18 08:57:00,45.7,42.1,24.80,WSW,241,0.0,0.0,87,0.00,,---,0.00,VWS V13.01,2013-03-18 15:57:00,
2013-03-18 09:02:00,46.1,42.5,24.80,WSW,241,0.0,0.0,87,0.00,,---,0.00,VWS V13.01,2013-03-18 16:02:00,
2013-03-18 09:07:00,46.7,42.7,24.80,WSW,241,0.0,0.0,86,0.00,,---,0.00,VWS V13.01,2013-03-18 16:07:00,
2013-03-18 09:12:00,47.6,43.3,24.80,WSW,241,0.0,0.0,85,0.00,,---,0.00,VWS V13.01,2013-03-18 16:12:00,
2013-03-18 09:17:00,48.4,44.1,24.80,WSW,241,0.0,0.0,85,0.00,,---,0.00,VWS V13.01,2013-03-18 16:17:00,
2013-03-18 09:22:00,49.4,44.5,24.80,WSW,241,0.0,0.0,83,0.00,,---,0.00,VWS V13.01,2013-03-18 16:22:00,
2013-03-18 09:27:00,50.3,45.0,24.80,WSW,241,0.0,0.0,82,0.00,,---,0.00,VWS V13.01,2013-03-18 16:27:00,
2013-03-18 09:32:00,51.1,45.5,24.80,WSW,241,0.0,0.0,81,0.00,,---,0.00,VWS V13.01,2013-03-18 16:32:00,
2013-03-18 09:37:00,51.9,45.9,24.80,WSW,241,0.0,0.0,80,0.00,,---,0.00,VWS V13.01,2013-03-18 16:37:00,
2013-03-18 09:42:00,52.8,46.1,24.80,WSW,241,0.0,0.0,78,0.00,,---,0.00,VWS V13.01,2013-03-18 16:42:00,
2013-03-18 09:47:00,53.2,46.5,24.80,WSW,241,0.0,0.0,78,0.00,,---,0.00,VWS V13.01,2013-03-18 16:47:00,
2013-03-18 09:52:00,53.5,46.5,24.80,WSW,241,0.0,0.0,77,0.00,,---,0.00,VWS V13.01,2013-03-18 16:52:00,
2013-03-18 09:57:00,53.8,46.4,24.80,WSW,238,0.0,0.0,76,0.00,,---,0.00,VWS V13.01,2013-03-18 16:57:00,
2013-03-18 10:02:00,54.1,46.7,24.80,WSW,239,0.0,0.0,76,0.00,,---,0.00,VWS V13.01,2013-03-18 17:02:00,
2013-03-18 10:07:00,54.5,46.4,24.80,WSW,239,0.0,0.0,74,0.00,,---,0.00,VWS V13.01,2013-03-18 17:07:00,
2013-03-18 10:12:00,55.0,47.2,24.80,WSW,237,0.0,4.0,75,0.00,,---,0.00,VWS V13.01,2013-03-18 17:12:00,
2013-03-18 10:17:00,55.5,47.4,24.80,WSW,237,0.0,4.0,74,0.00,,---,0.00,VWS V13.01,2013-03-18 17:17:00,
2013-03-18 10:22:00,55.9,47.4,24.80,SW,233,0.0,5.0,73,0.00,,---,0.00,VWS V13.01,2013-03-18 17:22:00,
2013-03-18 10:27:00,56.2,48.0,24.80,SW,233,0.0,5.0,74,0.00,,---,0.00,VWS V13.01,2013-03-18 17:27:00,
2013-03-18 10:32:00,56.7,48.2,24.80,SW,233,0.0,5.0,73,0.00,,---,0.00,VWS V13.01,2013-03-18 17:32:00,
2013-03-18 10:37:00,57.1,47.8,24.80,SW,233,0.0,5.0,71,0.00,,---,0.00,VWS V13.01,2013-03-18 17:37:00,
2013-03-18 10:42:00,57.0,47.3,24.80,SW,233,0.0,5.0,70,0.00,,---,0.00,VWS V13.01,2013-03-18 17:42:00,
2013-03-18 10:47:00,57.1,47.8,24.80,SW,233,0.0,5.0,71,0.00,,---,0.00,VWS V13.01,2013-03-18 17:47:00,
2013-03-18 10:52:00,57.7,48.0,24.80,SW,233,0.0,5.0,70,0.00,,---,0.00,VWS V13.01,2013-03-18 17:52:00,
2013-03-18 10:57:00,58.3,47.8,24.80,SW,233,0.0,5.0,68,0.00,,---,0.00,VWS V13.01,2013-03-18 17:57:00,
2013-03-18 11:02:00,58.7,47.4,24.80,SW,233,0.0,0.0,66,0.00,,---,0.00,VWS V13.01,2013-03-18 18:02:00,
2013-03-18 11:08:00,59.2,48.3,24.80,SW,233,0.0,0.0,67,0.00,,---,0.00,VWS V13.01,2013-03-18 18:08:00,
2013-03-18 11:13:00,59.8,48.0,24.80,SW,233,0.0,3.0,65,0.00,,---,0.00,VWS V13.01,2013-03-18 18:13:00,
2013-03-18 11:18:00,60.4,48.2,24.80,SW,233,0.0,3.0,64,0.00,,---,0.00,VWS V13.01,2013-03-18 18:18:00,
2013-03-18 11:23:00,60.8,48.1,24.80,East,98,1.0,3.0,63,0.00,,---,0.00,VWS V13.01,2013-03-18 18:23:00,
2013-03-18 11:28:00,60.9,47.4,24.80,WSW,240,3.0,3.0,61,0.00,,---,0.00,VWS V13.01,2013-03-18 18:28:00,
2013-03-18 11:33:00,61.2,49.3,24.80,South,186,0.0,4.0,65,0.00,,---,0.00,VWS V13.01,2013-03-18 18:33:00,
2013-03-18 11:38:00,61.7,48.6,24.80,South,186,0.0,4.0,62,0.00,,---,0.00,VWS V13.01,2013-03-18 18:38:00,
2013-03-18 11:43:00,61.9,48.3,24.80,SW,227,2.0,6.0,61,0.00,,---,0.00,VWS V13.01,2013-03-18 18:43:00,
2013-03-18 11:48:00,62.0,48.0,24.80,WSW,245,0.0,6.0,60,0.00,,---,0.00,VWS V13.01,2013-03-18 18:48:00,
2013-03-18 11:52:00,62.4,48.8,24.80,SW,224,0.0,6.0,61,0.00,,---,0.00,VWS V13.01,2013-03-18 18:52:00,
2013-03-18 11:57:00,62.9,47.9,24.80,SW,222,2.0,6.0,58,0.00,,---,0.00,VWS V13.01,2013-03-18 18:57:00,
2013-03-18 12:02:00,63.2,47.7,24.80,SW,221,0.0,3.0,57,0.00,,---,0.00,VWS V13.01,2013-03-18 19:02:00,
2013-03-18 12:07:00,63.5,48.9,24.80,SW,223,2.0,3.0,59,0.00,,---,0.00,VWS V13.01,2013-03-18 19:07:00,
2013-03-18 12:12:00,63.9,48.8,24.80,WSW,237,0.0,3.0,58,0.00,,---,0.00,VWS V13.01,2013-03-18 19:12:00,
2013-03-18 12:17:00,64.2,48.2,24.80,WSW,239,5.0,5.0,56,0.00,,---,0.00,VWS V13.01,2013-03-18 19:17:00,
2013-03-18 12:22:00,63.8,47.8,24.80,West,268,0.0,5.0,56,0.00,,---,0.00,VWS V13.01,2013-03-18 19:22:00,
2013-03-18 12:27:00,63.4,47.5,24.80,West,261,0.0,6.0,56,0.00,,---,0.00,VWS V13.01,2013-03-18 19:27:00,
2013-03-18 12:32:00,63.1,46.7,24.80,West,261,0.0,6.0,55,0.00,,---,0.00,VWS V13.01,2013-03-18 19:32:00,
2013-03-18 12:37:00,63.4,47.9,24.80,East,87,0.0,6.0,57,0.00,,---,0.00,VWS V13.01,2013-03-18 19:37:00,
2013-03-18 12:42:00,64.1,48.1,24.80,WSW,245,1.0,6.0,56,0.00,,---,0.00,VWS V13.01,2013-03-18 19:42:00,
2013-03-18 12:47:00,64.9,47.9,24.80,WSW,245,0.0,6.0,54,0.00,,---,0.00,VWS V13.01,2013-03-18 19:47:00,
2013-03-18 12:52:00,65.2,49.1,24.80,SW,234,1.0,6.0,56,0.00,,---,0.00,VWS V13.01,2013-03-18 19:52:00,
2013-03-18 12:57:00,65.8,49.7,24.80,SW,214,0.0,6.0,56,0.00,,---,0.00,VWS V13.01,2013-03-18 19:57:00,
2013-03-18 13:02:00,66.6,49.5,24.80,SSW,207,2.0,2.0,54,0.00,,---,0.00,VWS V13.01,2013-03-18 20:02:00,
2013-03-18 13:07:00,67.4,49.2,24.80,SW,221,0.0,3.0,52,0.00,,---,0.00,VWS V13.01,2013-03-18 20:07:00,
2013-03-18 13:12:00,67.8,49.5,24.80,SW,236,4.0,5.0,52,0.00,,---,0.00,VWS V13.01,2013-03-18 20:12:00,
2013-03-18 13:17:00,67.9,49.1,24.80,NW,324,0.0,5.0,51,0.00,,---,0.00,VWS V13.01,2013-03-18 20:17:00,
2013-03-18 13:23:00,67.8,50.1,24.80,South,190,0.0,5.0,53,0.00,,---,0.00,VWS V13.01,2013-03-18 20:23:00,
2013-03-18 13:28:00,68.1,49.3,24.80,SW,217,0.0,5.0,51,0.00,,---,0.00,VWS V13.01,2013-03-18 20:28:00,
2013-03-18 13:33:00,68.4,48.5,24.80,SW,217,1.0,5.0,49,0.00,,---,0.00,VWS V13.01,2013-03-18 20:33:00,
2013-03-18 13:38:00,68.3,47.9,24.80,WNW,293,3.0,5.0,48,0.00,,---,0.00,VWS V13.01,2013-03-18 20:38:00,
2013-03-18 13:43:00,67.6,48.8,24.80,WSW,240,1.0,6.0,51,0.00,,---,0.00,VWS V13.01,2013-03-18 20:43:00,
2013-03-18 13:48:00,67.6,49.4,24.80,WSW,246,0.0,6.0,52,0.00,,---,0.00,VWS V13.01,2013-03-18 20:48:00,
2013-03-18 13:53:00,67.9,49.7,24.80,WSW,238,1.0,6.0,52,0.00,,---,0.00,VWS V13.01,2013-03-18 20:53:00,
2013-03-18 13:58:00,68.1,49.3,24.80,WNW,284,3.0,6.0,51,0.00,,---,0.00,VWS V13.01,2013-03-18 20:58:00,
2013-03-18 14:02:00,68.0,48.7,24.80,SW,220,0.0,4.0,50,0.00,,---,0.00,VWS V13.01,2013-03-18 21:02:00,
2013-03-18 14:07:00,67.9,49.1,24.80,SW,226,3.0,4.0,51,0.00,,---,0.00,VWS V13.01,2013-03-18 21:07:00,
2013-03-18 14:12:00,67.9,49.1,24.80,SW,232,5.0,5.0,51,0.00,,---,0.00,VWS V13.01,2013-03-18 21:12:00,
2013-03-18 14:17:00,68.0,48.2,24.80,SW,230,2.0,6.0,49,0.00,,---,0.00,VWS V13.01,2013-03-18 21:17:00,
2013-03-18 14:23:00,68.1,48.2,24.80,WSW,241,0.0,6.0,49,0.00,,---,0.00,VWS V13.01,2013-03-18 21:23:00,
2013-03-18 14:28:00,68.0,48.2,24.80,SW,234,2.0,6.0,49,0.00,,---,0.00,VWS V13.01,2013-03-18 21:28:00,
2013-03-18 14:32:00,68.0,47.6,24.80,SW,227,2.0,6.0,48,0.00,,---,0.00,VWS V13.01,2013-03-18 21:32:00,
2013-03-18 14:37:00,68.1,48.2,24.80,SW,228,0.0,6.0,49,0.00,,---,0.00,VWS V13.01,2013-03-18 21:37:00,
2013-03-18 14:42:00,68.2,47.2,24.80,SW,232,0.0,6.0,47,0.00,,---,0.00,VWS V13.01,2013-03-18 21:42:00,
2013-03-18 14:47:00,68.0,47.0,24.80,SW,228,0.0,6.0,47,0.00,,---,0.00,VWS V13.01,2013-03-18 21:47:00,
2013-03-18 14:52:00,67.9,47.0,24.80,SW,228,0.0,6.0,47,0.00,,---,0.00,VWS V13.01,2013-03-18 21:52:00,
2013-03-18 14:57:00,68.1,47.1,24.80,SW,230,0.0,6.0,47,0.00,,---,0.00,VWS V13.01,2013-03-18 21:57:00,
2013-03-18 15:02:00,68.0,47.6,24.80,WSW,237,2.0,2.0,48,0.00,,---,0.00,VWS V13.01,2013-03-18 22:02:00,
2013-03-18 15:07:00,68.1,47.1,24.80,WSW,238,8.0,11.0,47,0.00,,---,0.00,VWS V13.01,2013-03-18 22:07:00,
2013-03-18 15:12:00,67.8,47.4,24.80,WSW,238,0.0,11.0,48,0.00,,---,0.00,VWS V13.01,2013-03-18 22:12:00,
2013-03-18 15:17:00,67.6,48.3,24.80,SW,227,0.0,11.0,50,0.00,,---,0.00,VWS V13.01,2013-03-18 22:17:00,
2013-03-18 15:22:00,67.6,48.3,24.80,South,190,0.0,11.0,50,0.00,,---,0.00,VWS V13.01,2013-03-18 22:22:00,
2013-03-18 15:27:00,67.8,48.5,24.80,SSE,167,1.0,11.0,50,0.00,,---,0.00,VWS V13.01,2013-03-18 22:27:00,
2013-03-18 15:32:00,68.1,48.2,24.80,South,175,2.0,11.0,49,0.00,,---,0.00,VWS V13.01,2013-03-18 22:32:00,
2013-03-18 15:37:00,68.3,47.9,24.80,South,176,1.0,11.0,48,0.00,,---,0.00,VWS V13.01,2013-03-18 22:37:00,
2013-03-18 15:42:00,68.5,47.5,24.80,South,173,0.0,11.0,47,0.00,,---,0.00,VWS V13.01,2013-03-18 22:42:00,
2013-03-18 15:47:00,68.5,47.5,24.80,South,173,2.0,11.0,47,0.00,,---,0.00,VWS V13.01,2013-03-18 22:47:00,
2013-03-18 15:52:00,68.6,47.6,24.80,South,176,1.0,11.0,47,0.00,,---,0.00,VWS V13.01,2013-03-18 22:52:00,
2013-03-18 15:57:00,68.7,48.2,24.80,South,180,0.0,11.0,48,0.00,,---,0.00,VWS V13.01,2013-03-18 22:57:00,
2013-03-18 16:02:00,68.8,47.8,24.80,South,180,0.0,0.0,47,0.00,,---,0.00,VWS V13.01,2013-03-18 23:02:00,
2013-03-18 16:07:00,69.0,48.0,24.80,South,178,0.0,3.0,47,0.00,,---,0.00,VWS V13.01,2013-03-18 23:07:00,
2013-03-18 16:12:00,69.2,47.0,24.80,South,176,0.0,3.0,45,0.00,,---,0.00,VWS V13.01,2013-03-18 23:12:00,
2013-03-18 16:17:00,69.5,47.8,24.80,South,178,0.0,3.0,46,0.00,,---,0.00,VWS V13.01,2013-03-18 23:17:00,
2013-03-18 16:22:00,69.8,47.5,24.80,South,180,0.0,3.0,45,0.00,,---,0.00,VWS V13.01,2013-03-18 23:22:00,
2013-03-18 16:27:00,70.0,47.7,24.80,South,180,0.0,3.0,45,0.00,,---,0.00,VWS V13.01,2013-03-18 23:27:00,
2013-03-18 16:32:00,70.2,47.9,24.80,South,181,0.0,3.0,45,0.00,,---,0.00,VWS V13.01,2013-03-18 23:32:00,
2013-03-18 16:37:00,69.8,46.9,24.80,SW,233,0.0,7.0,44,0.00,,---,0.00,VWS V13.01,2013-03-18 23:37:00,
2013-03-18 16:42:00,69.2,47.6,24.80,SW,217,0.0,7.0,46,0.00,,---,0.00,VWS V13.01,2013-03-18 23:42:00,
2013-03-18 16:47:00,69.1,46.9,24.80,South,175,2.0,7.0,45,0.00,,---,0.00,VWS V13.01,2013-03-18 23:47:00,
2013-03-18 16:52:00,69.2,47.6,24.80,South,173,2.0,7.0,46,0.00,,---,0.00,VWS V13.01,2013-03-18 23:52:00,
2013-03-18 16:57:00,69.4,47.7,24.80,South,176,0.0,7.0,46,0.00,,---,0.00,VWS V13.01,2013-03-18 23:57:00,
2013-03-18 17:02:00,69.6,48.5,24.80,South,188,1.0,3.0,47,0.00,,---,0.00,VWS V13.01,2013-03-19 00:02:00,
2013-03-18 17:07:00,69.5,47.2,24.80,South,188,0.0,3.0,45,0.00,,---,0.00,VWS V13.01,2013-03-19 00:07:00,
2013-03-18 17:12:00,69.3,47.1,24.80,South,188,0.0,3.0,45,0.00,,---,0.00,VWS V13.01,2013-03-19 00:12:00,
2013-03-18 17:17:00,69.4,47.2,24.80,South,188,0.0,3.0,45,0.00,,---,0.00,VWS V13.01,2013-03-19 00:17:00,
2013-03-18 17:22:00,69.5,49.0,24.80,South,188,0.0,3.0,48,0.00,,---,0.00,VWS V13.01,2013-03-19 00:22:00,
2013-03-18 17:27:00,69.0,48.5,24.80,SW,230,2.0,6.0,48,0.00,,---,0.00,VWS V13.01,2013-03-19 00:27:00,
2013-03-18 17:32:00,68.3,47.9,24.80,SW,231,0.0,6.0,48,0.00,,---,0.00,VWS V13.01,2013-03-19 00:32:00,
2013-03-18 17:37:00,68.0,48.2,24.80,SW,229,0.0,6.0,49,0.00,,---,0.00,VWS V13.01,2013-03-19 00:37:00,
2013-03-18 17:42:00,67.8,48.0,24.80,SW,229,2.0,6.0,49,0.00,,---,0.00,VWS V13.01,2013-03-19 00:42:00,
2013-03-18 17:47:00,67.4,48.7,24.80,WSW,237,2.0,7.0,51,0.00,,---,0.00,VWS V13.01,2013-03-19 00:47:00,
2013-03-18 17:52:00,66.6,47.9,24.80,WSW,242,0.0,7.0,51,0.00,,---,0.00,VWS V13.01,2013-03-19 00:52:00,
2013-03-18 17:57:00,65.9,47.3,24.80,SW,222,1.0,7.0,51,0.00,,---,0.00,VWS V13.01,2013-03-19 00:57:00,
2013-03-18 18:02:00,65.5,47.4,24.80,SW,222,0.0,1.0,52,0.00,,---,0.00,VWS V13.01,2013-03-19 01:02:00,
2013-03-18 18:07:00,65.2,47.7,24.80,SW,225,0.0,4.0,53,0.00,,---,0.00,VWS V13.01,2013-03-19 01:07:00,
2013-03-18 18:12:00,65.1,47.6,24.80,South,184,0.0,4.0,53,0.00,,---,0.00,VWS V13.01,2013-03-19 01:12:00,
2013-03-18 18:17:00,64.9,47.9,24.80,South,176,2.0,4.0,54,0.00,,---,0.00,VWS V13.01,2013-03-19 01:17:00,
2013-03-18 18:22:00,64.5,47.0,24.80,South,181,0.0,4.0,53,0.00,,---,0.00,VWS V13.01,2013-03-19 01:22:00,
2013-03-18 18:27:00,63.8,46.8,24.80,South,190,0.0,4.0,54,0.00,,---,0.00,VWS V13.01,2013-03-19 01:27:00,
2013-03-18 18:32:00,63.3,46.9,24.80,SSW,195,0.0,4.0,55,0.00,,---,0.00,VWS V13.01,2013-03-19 01:32:00,
2013-03-18 18:38:00,63.1,47.6,24.80,SSW,195,0.0,4.0,57,0.00,,---,0.00,VWS V13.01,2013-03-19 01:38:00,
2013-03-18 18:43:00,63.0,46.6,24.80,SSW,195,0.0,4.0,55,0.00,,---,0.00,VWS V13.01,2013-03-19 01:43:00,
2013-03-18 18:48:00,62.8,45.9,24.80,SW,234,0.0,5.0,54,0.00,,---,0.00,VWS V13.01,2013-03-19 01:48:00,
2013-03-18 18:53:00,62.8,46.4,24.80,SW,234,0.0,5.0,55,0.00,,---,0.00,VWS V13.01,2013-03-19 01:53:00,
2013-03-18 18:58:00,62.7,45.8,24.80,SW,235,2.0,5.0,54,0.00,,---,0.00,VWS V13.01,2013-03-19 01:58:00,
2013-03-18 19:03:00,62.6,44.2,24.80,WSW,237,0.0,2.0,51,0.00,,---,0.00,VWS V13.01,2013-03-19 02:03:00,
2013-03-18 19:08:00,62.5,42.6,24.80,WSW,246,0.0,4.0,48,0.00,,---,0.00,VWS V13.01,2013-03-19 02:08:00,
2013-03-18 19:13:00,62.4,41.9,24.80,WSW,246,0.0,4.0,47,0.00,,---,0.00,VWS V13.01,2013-03-19 02:13:00,
2013-03-18 19:18:00,62.3,41.3,24.80,WSW,246,0.0,4.0,46,0.00,,---,0.00,VWS V13.01,2013-03-19 02:18:00,
2013-03-18 19:23:00,62.1,41.1,24.80,WSW,245,0.0,4.0,46,0.00,,---,0.00,VWS V13.01,2013-03-19 02:23:00,
2013-03-18 19:28:00,62.0,41.0,24.80,WSW,245,0.0,4.0,46,0.00,,---,0.00,VWS V13.01,2013-03-19 02:28:00,
2013-03-18 19:33:00,61.8,41.9,24.80,WSW,245,0.0,4.0,48,0.00,,---,0.00,VWS V13.01,2013-03-19 02:33:00,
2013-03-18 19:38:00,61.7,42.4,24.80,WSW,245,0.0,4.0,49,0.00,,---,0.00,VWS V13.01,2013-03-19 02:38:00,
2013-03-18 19:43:00,61.4,42.1,24.80,WSW,245,0.0,4.0,49,0.00,,---,0.00,VWS V13.01,2013-03-19 02:43:00,
2013-03-18 19:48:00,61.0,42.2,24.80,West,262,4.0,7.0,50,0.00,,---,0.00,VWS V13.01,2013-03-19 02:48:00,
2013-03-18 19:53:00,60.9,43.2,24.80,West,263,3.0,7.0,52,0.00,,---,0.00,VWS V13.01,2013-03-19 02:53:00,
2013-03-18 19:58:00,60.7,44.0,24.80,West,262,1.0,7.0,54,0.00,,---,0.00,VWS V13.01,2013-03-19 02:58:00,
2013-03-18 20:03:00,60.5,44.3,24.80,West,262,0.0,1.0,55,0.00,,---,0.00,VWS V13.01,2013-03-19 03:03:00,
2013-03-18 20:08:00,60.0,44.7,24.80,WNW,286,3.0,14.0,57,0.00,,---,0.00,VWS V13.01,2013-03-19 03:08:00,
2013-03-18 20:13:00,59.2,44.9,24.80,West,266,2.0,14.0,59,0.00,,---,0.00,VWS V13.01,2013-03-19 03:13:00,
2013-03-18 20:18:00,58.3,44.5,24.80,West,261,6.0,14.0,60,0.00,,---,0.00,VWS V13.01,2013-03-19 03:18:00,
2013-03-18 20:23:00,57.6,44.3,24.80,WNW,293,6.0,14.0,61,0.00,,---,0.00,VWS V13.01,2013-03-19 03:23:00,
2013-03-18 20:28:00,56.7,43.0,24.80,West,272,2.0,14.0,60,0.00,,---,0.00,VWS V13.01,2013-03-19 03:28:00,
2013-03-18 20:33:00,55.9,43.1,24.80,WNW,294,0.0,14.0,62,0.00,,---,0.00,VWS V13.01,2013-03-19 03:33:00,
2013-03-18 20:38:00,55.5,43.1,24.80,WSW,249,1.0,14.0,63,0.00,,---,0.00,VWS V13.01,2013-03-19 03:38:00,
2013-03-18 20:43:00,55.0,43.1,24.80,WSW,244,0.0,14.0,64,0.00,,---,0.00,VWS V13.01,2013-03-19 03:43:00,
2013-03-18 20:48:00,54.7,43.2,24.80,NNW,343,3.0,14.0,65,0.00,,---,0.00,VWS V13.01,2013-03-19 03:48:00,
2013-03-18 20:53:00,54.4,42.1,24.80,North,355,0.0,14.0,63,0.00,,---,0.00,VWS V13.01,2013-03-19 03:53:00,
2013-03-18 20:58:00,54.3,42.4,24.80,NW,317,0.0,14.0,64,0.00,,---,0.00,VWS V13.01,2013-03-19 03:58:00,
2013-03-18 21:00:00,54.3,42.4,24.80,NW,317,0.0,14.0,64,0.00,,---,0.00,VWS V13.01,2013-03-19 04:00:00,
2013-03-18 21:05:00,54.1,42.2,24.80,East,100,2.0,8.0,64,0.00,,---,0.00,VWS V13.01,2013-03-19 04:05:00,
2013-03-18 21:10:00,54.0,42.5,24.80,South,169,0.0,8.0,65,0.00,,---,0.00,VWS V13.01,2013-03-19 04:10:00,
2013-03-18 21:15:00,53.9,41.6,24.80,South,175,0.0,8.0,63,0.00,,---,0.00,VWS V13.01,2013-03-19 04:15:00,
2013-03-18 21:20:00,54.0,42.5,24.80,South,175,0.0,8.0,65,0.00,,---,0.00,VWS V13.01,2013-03-19 04:20:00,
2013-03-18 21:25:00,54.2,42.3,24.80,South,175,0.0,8.0,64,0.00,,---,0.00,VWS V13.01,2013-03-19 04:25:00,
2013-03-18 21:30:00,54.3,42.0,24.80,South,175,0.0,8.0,63,0.00,,---,0.00,VWS V13.01,2013-03-19 04:30:00,
2013-03-18 21:35:00,54.4,42.1,24.80,South,175,0.0,8.0,63,0.00,,---,0.00,VWS V13.01,2013-03-19 04:35:00,
2013-03-18 21:40:00,54.4,41.2,24.80,South,175,0.0,8.0,61,0.00,,---,0.00,VWS V13.01,2013-03-19 04:40:00,
2013-03-18 21:45:00,54.5,41.3,24.80,South,176,0.0,8.0,61,0.00,,---,0.00,VWS V13.01,2013-03-19 04:45:00,
2013-03-18 21:50:00,54.5,41.3,24.80,South,179,1.0,8.0,61,0.00,,---,0.00,VWS V13.01,2013-03-19 04:50:00,
2013-03-18 21:55:00,54.6,41.4,24.80,South,179,0.0,8.0,61,0.00,,---,0.00,VWS V13.01,2013-03-19 04:55:00,
2013-03-18 22:00:00,54.6,41.0,24.80,South,179,0.0,8.0,60,0.00,,---,0.00,VWS V13.01,2013-03-19 05:00:00,
2013-03-18 22:05:00,54.8,41.2,24.80,West,272,5.0,6.0,60,0.00,,---,0.00,VWS V13.01,2013-03-19 05:05:00,
2013-03-18 22:10:00,54.6,42.3,24.80,West,277,3.0,6.0,63,0.00,,---,0.00,VWS V13.01,2013-03-19 05:10:00,
2013-03-18 22:15:00,54.3,42.0,24.80,SSW,213,0.0,6.0,63,0.00,,---,0.00,VWS V13.01,2013-03-19 05:15:00,
2013-03-18 22:20:00,54.2,42.7,24.80,SW,233,0.0,6.0,65,0.00,,---,0.00,VWS V13.01,2013-03-19 05:20:00,
2013-03-18 22:25:00,54.1,42.6,24.80,SW,232,0.0,6.0,65,0.00,,---,0.00,VWS V13.01,2013-03-19 05:25:00,
2013-03-18 22:30:00,54.2,42.3,24.80,SW,233,0.0,6.0,64,0.00,,---,0.00,VWS V13.01,2013-03-19 05:30:00,
2013-03-18 22:35:00,54.2,42.3,24.80,SW,233,0.0,6.0,64,0.00,,---,0.00,VWS V13.01,2013-03-19 05:35:00,
2013-03-18 22:40:00,54.3,42.8,24.80,SW,232,0.0,6.0,65,0.00,,---,0.00,VWS V13.01,2013-03-19 05:40:00,
2013-03-18 22:45:00,54.3,42.8,24.80,SW,232,0.0,6.0,65,0.00,,---,0.00,VWS V13.01,2013-03-19 05:45:00,
2013-03-18 22:50:00,54.2,43.5,24.80,SW,232,0.0,6.0,67,0.00,,---,0.00,VWS V13.01,2013-03-19 05:50:00,
2013-03-18 22:55:00,54.1,43.8,24.80,SW,232,0.0,6.0,68,0.00,,---,0.00,VWS V13.01,2013-03-19 05:55:00,
2013-03-18 23:00:00,54.1,44.5,24.80,SW,232,0.0,6.0,70,0.00,,---,0.00,VWS V13.01,2013-03-19 06:00:00,
2013-03-18 23:05:00,54.1,44.5,24.80,SW,232,0.0,0.0,70,0.00,,---,0.00,VWS V13.01,2013-03-19 06:05:00,
2013-03-18 23:09:00,54.0,45.2,24.80,SW,232,0.0,1.0,72,0.00,,---,0.00,VWS V13.01,2013-03-19 06:09:00,
2013-03-18 23:14:00,54.0,45.2,24.80,SW,232,0.0,1.0,72,0.00,,---,0.00,VWS V13.01,2013-03-19 06:14:00,
2013-03-18 23:19:00,53.8,45.0,24.80,SW,229,0.0,1.0,72,0.00,,---,0.00,VWS V13.01,2013-03-19 06:19:00,
2013-03-18 23:24:00,53.6,44.8,24.80,SW,226,0.0,2.0,72,0.00,,---,0.00,VWS V13.01,2013-03-19 06:24:00,
2013-03-18 23:29:00,53.4,44.6,24.80,SW,226,0.0,2.0,72,0.00,,---,0.00,VWS V13.01,2013-03-19 06:29:00,
2013-03-18 23:34:00,53.0,44.2,24.80,SW,226,0.0,2.0,72,0.00,,---,0.00,VWS V13.01,2013-03-19 06:34:00,
2013-03-18 23:39:00,52.4,44.0,24.80,SW,226,0.0,2.0,73,0.00,,---,0.00,VWS V13.01,2013-03-19 06:39:00,
2013-03-18 23:44:00,52.1,44.1,24.80,SW,226,0.0,2.0,74,0.00,,---,0.00,VWS V13.01,2013-03-19 06:44:00,
2013-03-18 23:49:00,51.8,44.5,24.80,SW,226,0.0,2.0,76,0.00,,---,0.00,VWS V13.01,2013-03-19 06:49:00,
2013-03-18 23:54:00,51.5,43.5,24.80,SW,226,0.0,2.0,74,0.00,,---,0.00,VWS V13.01,2013-03-19 06:54:00,
2013-03-18 23:59:00,51.2,42.9,24.80,SW,225,0.0,2.0,73,0.00,,---,0.00,VWS V13.01,2013-03-19 06:59:00,